EHI
0 0 0 0 0 0 0 0 0 0 0 0 0 0 0 0 0 0 0 0 0 0 0 0 0 0 0 0 0 0 0 0 0 0 0 0 0 0 0 0 0 0 0 0
0 0 0 0 0 0 0 0 0 0 0 0 0 0 0 0 0 0 0 0 0 0 0 0 0 0 0 0 0 0 0 0 0 0 0 0 0 0 0 0 0 0 0 0
0 0 0 0 0 0 0 0 0 0 0 0 0 0 0 0 0 0 0 0 0 0 0 0 0 0 0 0 0 0 0 0 0 0 0 0 0 0 0 0 0 0 0 0
0 0 0 0 0 0 0 0 0 0 0 0 0 0 0 0 0 0 0 0 0 0 0 1 1 0 0 0 0 0 0 0 0 0 0 0 0 0 0 0 0 0 0 0
0 0 0 0 0 0 0 0 0 0 0 0 0 0 0 0 0 0 0 0 0 0 0 1 2 1 0 0 0 0 1 1 1 0 0 0 0 0 0 0 0 0 0 0
0 0 0 0 0 0 0 0 0 0 0 0 0 0 0 0 0 0 0 0 1 1 0 1 1 1 0 0 0 0 1 2 2 1 0 0 0 0 0 0 0 0 0 0
0 0 0 0 0 0 0 0 0 0 0 0 0 0 0 0 0 0 0 1 2 2 1 0 1 1 2 2 0 0 1 2 2 1 0 0 0 0 0 0 0 0 0 0
0 0 0 0 0 0 0 0 0 0 0 0 0 0 0 0 0 0 0 1 2 3 1 0 1 3 5 4 2 0 0 1 1 1 0 0 0 0 0 0 0 0 0 0
0 0 0 0 0 0 0 0 0 0 0 0 0 0 0 0 0 0 0 1 2 3 2 0 1 3 5 5 3 1 0 1 1 1 0 0 0 0 0 0 0 0 0 0
0 0 0 0 0 0 0 0 0 0 0 0 0 0 0 0 0 0 0 1 2 3 2 1 1 2 4 5 4 2 1 1 1 1 0 0 0 0 0 1 1 1 1 0
0 0 0 0 0 0 0 0 0 0 0 0 0 0 0 0 0 0 0 1 2 3 2 1 1 2 4 5 4 2 1 1 0 0 0 1 1 1 1 1 2 2 2 1
0 0 0 0 0 0 0 0 0 0 0 0 0 0 0 0 0 0 0 1 3 3 1 1 1 2 4 5 3 1 1 0 0 0 0 1 2 2 1 1 1 2 2 2
0 0 0 0 0 0 0 0 0 0 0 0 0 0 0 0 0 0 1 2 3 2 1 0 1 2 4 5 3 1 0 0 0 0 0 1 2 2 1 0 1 1 2 3
0 0 0 0 0 0 0 0 0 0 0 0 0 0 0 0 0 0 1 2 2 2 1 0 0 2 4 4 3 1 0 0 0 0 0 0 1 1 0 0 1 2 2 3
0 0 0 0 0 0 0 0 0 0 0 0 0 0 0 0 0 0 1 1 1 1 0 0 1 3 5 5 3 1 0 0 0 0 0 0 0 0 0 0 1 1 1 1
0 0 0 0 0 0 0 0 0 0 0 0 0 0 0 0 0 1 2 2 1 0 0 0 1 3 6 5 3 1 1 0 0 0 0 0 0 0 0 0 0 0 0 0
0 0 0 0 0 0 0 0 0 0 0 0 0 0 0 0 0 1 2 2 1 0 0 0 1 2 4 4 3 3 2 1 0 0 0 0 0 0 0 0 0 0 0 0
0 0 0 0 0 0 0 0 0 0 0 0 0 0 0 0 0 0 1 2 2 0 0 0 0 1 2 2 3 3 2 1 0 0 0 0 0 0 0 0 1 2 1 0
0 0 0 0 0 0 0 0 0 0 0 0 0 0 0 0 0 0 1 2 1 0 0 0 0 0 0 1 2 2 1 0 0 1 1 0 0 1 0 0 2 3 2 1
0 0 0 0 0 0 0 0 0 0 0 0 0 0 0 0 0 0 1 1 1 0 0 0 0 1 1 2 3 3 1 1 1 2 2 1 0 0 0 0 1 2 2 2
0 0 0 0 0 0 0 0 0 0 0 0 0 0 0 0 0 0 0 0 1 1 1 1 1 1 2 3 3 3 2 2 2 3 3 1 0 0 0 1 2 3 3 3
0 0 0 0 0 0 0 0 0 0 0 0 0 0 0 0 0 0 0 0 1 1 1 0 0 1 1 1 1 1 1 1 1 2 1 1 0 0 0 1 2 2 2 2
0 0 0 0 0 0 0 0 0 0 0 0 0 0 0 0 0 0 0 0 0 0 0 0 0 0 0 0 0 0 0 0 0 0 0 0 0 0 0 1 1 1 1 1
0 0 0 0 0 0 0 0 0 0 0 0 0 0 0 0 0 0 0 0 0 0 0 0 0 1 0 0 0 0 0 0 0 0 0 0 0 0 0 0 0 0 0 1
0 0 0 0 0 0 0 0 0 0 0 0 0 0 0 0 0 0 0 0 0 0 0 0 0 0 0 0 0 0 0 0 0 0 0 0 1 1 0 0 0 0 0 1
0 0 0 0 0 0 0 0 0 0 0 0 0 0 0 0 0 0 0 0 0 0 0 0 0 0 0 0 0 0 0 0 0 0 0 1 2 2 1 0 0 0 0 0
Wind_Speed
4 3 3 3 4 3 3 4 5 5 6 5 6 7 9 8 8 8 9 9 9 8 8 7 6 6 5 5 7 7 6 5 3 2 2 2 2 2 2 3 4 4 4 5
3 2 3 2 2 2 5 5 5 5 6 5 5 6 8 9 9 9 9 9 9 9 8 8 7 6 6 6 6 6 6 5 5 2 2 2 2 2 3 3 3 4 4 5
1 1 2 3 3 3 4 5 5 5 5 4 4 4 7 9 10 9 9 8 9 10 10 10 9 7 6 6 6 6 6 6 5 4 2 3 2 1 2 2 1 2 3 4
1 2 2 2 2 2 2 4 5 5 4 4 6 3 7 10 10 10 9 8 8 9 9 9 9 8 7 7 6 6 6 6 6 5 3 3 3 2 2 2 2 2 3 2
2 2 2 2 1 1 2 4 4 5 4 4 5 3 5 10 11 11 11 10 9 9 9 10 9 8 8 7 6 5 6 6 6 5 3 1 2 2 2 2 2 3 2 2
2 1 1 2 2 3 3 4 3 4 3 4 6 4 4 8 11 12 12 12 10 9 9 9 9 8 7 7 6 5 6 5 5 5 5 3 3 2 3 2 2 2 2 1
3 3 4 3 3 4 5 3 2 3 3 4 6 5 4 7 10 11 11 12 11 10 9 9 9 8 8 8 7 6 6 6 6 5 5 5 4 4 4 3 3 2 2 2
4 4 6 5 4 3 5 5 3 2 2 3 5 3 3 5 5 8 9 10 10 10 9 9 9 9 8 9 8 7 7 7 7 6 5 5 5 3 2 3 3 2 2 2
2 4 7 6 5 4 4 5 5 4 2 1 4 4 5 6 6 6 8 9 10 9 9 10 9 9 9 9 8 7 7 7 7 6 5 4 4 4 3 3 2 2 2 3
1 3 6 6 5 6 5 4 3 2 1 1 2 3 4 7 7 7 7 8 8 9 9 9 9 9 9 8 7 7 7 7 6 6 5 4 3 4 3 2 2 2 2 3
2 2 5 6 5 4 6 5 3 2 2 1 0 1 3 5 5 6 7 7 7 8 8 8 8 8 8 8 7 6 6 6 6 6 5 5 4 4 4 2 2 2 2 3
2 2 3 5 3 3 5 3 1 1 3 1 1 1 4 5 4 5 6 6 7 7 7 7 8 8 7 7 7 7 6 6 5 5 4 4 5 4 4 4 3 3 3 3
2 2 1 2 3 4 4 3 3 2 2 1 0 1 4 4 4 5 5 5 5 7 7 7 8 7 7 7 6 6 6 6 6 5 5 4 5 5 4 4 4 3 3 3
2 4 2 1 1 2 3 3 3 2 1 1 0 1 1 2 4 5 5 5 5 6 6 7 7 7 7 7 6 6 6 6 6 6 5 4 4 4 4 3 3 2 2 2
4 4 3 2 1 2 4 4 4 4 3 2 1 1 1 1 3 4 5 4 5 6 6 7 7 6 6 6 6 5 5 6 7 6 5 5 4 4 4 3 3 2 2 2
5 4 4 4 4 4 4 4 4 5 3 3 2 2 0 2 3 4 5 5 5 5 6 6 7 7 7 7 7 6 6 6 6 6 5 4 4 4 4 4 3 3 2 1
5 6 5 5 4 5 4 2 2 2 3 3 2 2 2 2 2 3 4 4 4 4 5 5 6 6 7 7 7 6 6 6 6 6 5 5 5 4 4 4 4 3 3 2
6 5 4 4 4 4 1 0 1 1 2 2 2 3 2 2 2 3 4 4 4 4 4 5 5 6 6 6 7 7 6 6 6 6 5 5 5 5 4 4 4 4 3 3
6 4 4 4 4 4 2 2 2 1 1 1 2 4 3 4 4 3 4 5 5 4 3 2 2 3 5 6 6 7 6 6 5 5 5 5 5 5 5 5 4 3 3 3
7 6 5 4 4 3 1 2 2 2 1 1 1 3 3 3 2 2 4 5 5 5 3 2 1 1 2 3 5 5 5 5 5 4 4 4 4 5 5 5 4 3 3 2
8 7 7 6 6 2 1 2 1 2 0 2 2 2 2 2 3 5 6 5 5 4 3 2 2 2 2 3 4 4 4 4 4 4 4 4 4 4 4 4 3 3 3 2
5 4 6 6 6 2 2 2 1 1 2 2 3 3 3 5 6 6 5 5 4 4 3 3 3 3 2 2 3 4 3 3 4 5 4 4 3 3 4 4 3 3 3 3
5 4 2 2 0 2 3 1 0 2 1 2 3 3 3 4 4 4 4 4 4 4 4 4 3 3 2 3 3 3 3 3 4 4 4 4 4 3 3 4 3 2 2 2
4 3 4 3 3 2 1 1 1 2 1 2 2 2 2 2 3 3 3 3 4 4 4 4 3 3 3 3 3 3 3 4 4 4 4 3 3 3 3 3 2 2 2 2
2 3 5 5 2 1 1 0 1 1 1 1 1 1 1 1 2 3 3 3 3 4 3 3 3 3 3 3 3 3 2 3 4 4 3 3 3 3 3 3 2 2 1 2
5 5 5 3 1 1 1 0 1 1 1 1 1 1 1 1 2 3 3 3 4 4 3 3 3 3 3 3 3 2 2 2 3 3 3 2 2 3 3 3 3 4 3 3
Wind_Direction
205 214 209 206 232 238 189 164 157 148 151 167 167 165 169 177 179 179 178 182 183 178 166 151 150 145 152 146 136 134 142 140 127 101 101 109 102 86 70 72 49 36 36 23
179 208 227 250 247 194 162 159 154 143 155 171 178 178 173 178 187 192 192 190 184 173 164 155 161 161 168 152 144 145 146 133 119 114 124 116 105 99 89 67 51 41 42 20
172 105 139 169 170 166 170 173 172 161 155 175 179 190 183 184 190 196 204 201 184 175 168 167 171 167 164 156 153 149 145 137 137 141 102 93 87 93 111 108 83 54 56 37
122 119 131 128 143 170 169 162 170 176 181 193 200 189 194 186 187 194 199 206 188 179 169 167 169 166 166 165 159 156 155 148 143 141 146 163 157 141 129 126 131 113 77 58
140 153 159 137 146 202 159 160 181 203 221 221 212 213 197 181 187 191 193 198 191 184 172 169 167 166 167 160 158 158 151 142 137 137 138 161 130 136 120 113 124 122 108 90
157 179 153 131 177 196 178 189 206 226 241 241 221 216 201 191 191 189 189 190 187 183 175 169 163 160 157 147 151 152 142 134 139 155 160 165 145 139 133 138 139 150 142 122
170 182 174 187 194 192 211 209 211 205 210 226 213 208 189 191 185 186 184 182 180 175 174 168 161 162 154 153 160 157 149 151 161 179 174 167 170 174 168 165 162 174 148 132
179 175 182 191 220 212 215 216 230 238 208 197 202 188 143 158 163 174 172 170 173 174 172 170 165 161 158 162 168 169 166 167 172 186 182 173 172 175 163 171 172 166 141 137
180 164 173 186 217 238 250 232 245 275 260 190 171 143 133 140 151 158 161 166 172 172 169 165 162 160 161 167 173 172 170 170 177 187 181 178 167 164 167 184 161 145 146 141
194 152 174 181 223 217 247 278 278 267 299 224 172 156 149 149 154 159 161 165 169 168 167 162 159 160 163 166 169 168 171 173 176 178 179 165 166 165 161 162 148 142 140 135
219 195 175 180 214 226 213 228 248 280 263 244 121 91 112 138 151 153 153 158 166 162 160 158 154 157 157 155 160 166 171 170 171 174 172 163 168 168 156 151 152 157 158 154
267 260 196 197 200 248 268 259 230 278 293 289 101 76 111 117 119 132 137 150 153 152 151 150 148 151 155 157 162 170 172 167 167 165 162 164 164 165 162 166 176 180 177 170
340 287 237 186 187 209 234 245 237 243 286 314 97 152 117 102 103 107 112 125 137 140 142 144 145 153 155 157 163 171 169 162 158 158 166 170 166 165 169 172 177 179 174 165
283 269 255 253 317 295 250 239 246 258 278 307 229 155 79 86 102 109 116 127 132 138 143 147 148 152 154 158 165 172 168 159 157 160 169 169 168 164 161 159 156 157 157 153
238 267 285 286 258 271 286 262 242 240 241 240 289 333 7 84 112 117 127 133 136 143 148 148 150 154 156 162 169 173 170 162 161 164 172 175 169 159 152 149 150 152 165 171
229 253 268 275 269 261 264 262 238 237 230 207 217 244 169 108 98 115 130 140 140 144 151 152 157 163 169 172 175 176 172 165 160 166 172 168 162 152 152 153 154 158 168 173
223 237 255 269 261 262 260 270 243 233 238 212 198 171 143 125 131 127 124 132 143 147 148 157 166 170 176 178 173 171 169 163 163 170 168 163 160 159 162 160 159 166 168 172
246 248 248 260 261 260 272 206 209 242 256 218 167 153 157 143 117 103 111 126 130 138 152 164 172 174 175 168 162 163 161 163 166 167 167 166 165 166 162 162 172 175 166 169
246 252 258 263 260 258 219 223 198 211 275 290 159 147 148 122 107 97 90 96 96 98 101 109 145 162 165 162 161 159 161 162 163 167 169 169 168 167 165 173 178 172 165 171
225 233 242 253 264 265 116 83 20 290 242 359 81 124 129 137 134 116 97 92 94 85 79 67 54 82 112 137 146 152 159 159 161 160 161 159 160 161 167 174 171 161 163 177
209 218 230 241 249 245 98 112 202 253 104 66 73 82 112 89 85 108 105 94 96 98 100 101 80 76 74 85 119 140 149 154 146 138 144 150 151 155 159 160 156 155 158 167
245 231 232 238 246 212 127 153 214 18 68 67 71 70 82 89 90 98 104 104 103 102 103 105 93 80 77 93 111 114 119 119 122 130 136 140 142 152 149 142 149 154 155 167
236 244 265 271 261 118 138 137 38 353 29 43 59 71 93 108 114 111 115 115 112 110 104 98 96 89 80 78 96 110 114 115 120 122 126 131 134 130 131 140 147 149 152 164
255 266 251 247 227 180 163 116 43 24 44 62 54 66 94 123 130 127 126 125 121 113 107 105 109 103 87 83 85 91 98 111 118 124 133 138 138 131 127 127 138 142 159 172
272 272 266 263 248 198 199 33 359 75 97 116 112 124 138 151 144 140 138 135 126 114 112 115 115 107 101 94 94 91 92 114 124 127 125 125 122 128 118 100 88 123 124 160
255 259 250 255 253 279 263 56 359 359 133 113 106 114 147 159 141 137 131 124 117 114 107 101 101 105 102 95 92 89 85 106 125 127 129 126 122 122 126 122 92 54 79 102